Nome, AK

3:43 PM AKST on January 18, 2017 (GMT -0900)
Nome

Weather History for PAOM - November, 2013

Change the Weather History Date:

Friday, November 8, 2013

  Actual Average Record
Temperature  
Mean Temperature 35 °F 19 °F  
Max Temperature 38 °F 25 °F 49 °F (1926)
Min Temperature 31 °F 13 °F -13 °F (1975)
Degree Days  
Heating Degree Days 30 46  
Month to date heating degree days 306 356  
Since 1 July heating degree days 2730 3006  
Cooling Degree Days 0 0  
Month to date cooling degree days 0 0  
Year to date cooling degree days 7 3  
Moisture  
Dew Point 31 °F    
Average Humidity 0    
Maximum Humidity 0    
Minimum Humidity 0    
Precipitation  
Precipitation 0.13 in 0.05 in 0.92 in (1915)
Month to date precipitation 0.34 0.35  
Year to date precipitation 18.98 14.86  
Snow  
Snow 0.80 in 0.40 in 6.90 in (1970)
Month to date snowfall 3.0 3.0  
Since 1 July snowfall 4.6 8.2  
Since 1 September snowfall 4.6 8.2  
Snow Depth 2.00 in    
Sea Level Pressure  
Sea Level Pressure 29.60 in    
Wind  
Wind Speed 18 mph (South)    
Max Wind Speed 30 mph    
Max Gust Speed 35 mph    
Visibility 5 miles    
Events Rain , Snow    
T = Trace of Precipitation, MM = Missing Value Source: NWS Daily Summary

Daily Weather History Graph

Daily Weather History Graph

Search for Another Location

Airport or City:

Trip Planner

Search our weather history database for the weather conditions in past years. The results will help you decide how hot, cold, wet, or windy it might be!

Date:

Astronomy

Nov. 08, 2013 Rise Set
Actual Time 10:12 AM AKST 5:17 PM AKST
Civil Twilight 9:14 AM AKST 6:15 PM AKST
Nautical Twilight 8:14 AM AKST 7:15 PM AKST
Astronomical Twilight 7:18 AM AKST 8:11 PM AKST
Moon 3:12 PM AKST (11/8) 11:05 PM AKST (11/8)
Length of Visible Light 9h 01m
Length of Day
7h 05m
Waxing Crescent, 34% of the Moon is Illuminated
Nov 8
Waxing Crescent
Nov 9
First Quarter
Nov 17
Full
Nov 25
Last Quarter
Dec 2
New

Hourly Weather History & Observations

Time (AKST) Temp. Windchill Dew Point Humidity Pressure Visibility Wind Dir Wind Speed Gust Speed Precip Events Conditions
12:53 AM 32.0 °F 21.2 °F 26.1 °F 79% 29.70 in 10.0 mi SSE 16.1 mph - N/A   Overcast
1:53 AM 32.0 °F 20.5 °F 28.9 °F 88% 29.69 in 6.0 mi SE 18.4 mph - 0.00 in Snow Light Snow
1:57 AM 32.0 °F 20.5 °F 28.4 °F 87% 29.69 in 2.5 mi SE 18.4 mph - 0.00 in Snow Light Snow
2:04 AM 32.0 °F 21.6 °F 30.2 °F 93% 29.69 in 1.5 mi SE 15.0 mph - 0.00 in Snow Light Snow
2:22 AM 32.0 °F 21.6 °F 30.2 °F 93% 29.69 in 0.8 mi SSE 15.0 mph - 0.01 in Snow Light Snow
2:37 AM 32.0 °F 24.2 °F 30.2 °F 93% 29.69 in 1.2 mi South 9.2 mph - 0.02 in Snow Light Snow
2:42 AM 32.0 °F 23.6 °F 30.2 °F 93% 29.69 in 3.0 mi SSW 10.4 mph - 0.02 in Snow Light Snow
2:53 AM 33.1 °F 23.0 °F 30.9 °F 92% 29.69 in 10.0 mi SSW 15.0 mph - 0.02 in   Overcast
3:21 AM 33.8 °F 24.8 °F 30.2 °F 87% 29.69 in 2.5 mi SSW 12.7 mph - 0.00 in Snow Light Snow
3:36 AM 33.8 °F 24.8 °F 30.2 °F 87% 29.68 in 9.0 mi South 12.7 mph - 0.01 in   Overcast
3:44 AM 33.8 °F 23.2 °F 28.4 °F 81% 29.68 in 10.0 mi SSW 17.3 mph 21.9 mph 0.01 in   Mostly Cloudy
3:53 AM 33.1 °F 21.9 °F 26.1 °F 75% 29.68 in 10.0 mi SSW 18.4 mph - 0.01 in   Mostly Cloudy
4:53 AM 33.1 °F 19.8 °F 27.0 °F 78% 29.68 in 5.0 mi WSW 26.5 mph 31.1 mph 0.00 in   Haze
5:00 AM 30.2 °F 17.1 °F 28.4 °F 93% 29.68 in 2.5 mi WSW 21.9 mph 34.5 mph 0.00 in Snow Light Snow
5:08 AM 30.2 °F 17.8 °F 28.4 °F 93% 29.68 in 7.0 mi WSW 19.6 mph - 0.00 in   Mostly Cloudy
5:53 AM 33.1 °F 20.9 °F 26.1 °F 75% 29.68 in 10.0 mi SSW 21.9 mph - 0.00 in   Overcast
6:53 AM 32.0 °F 21.6 °F 26.1 °F 79% 29.68 in 10.0 mi SSW 15.0 mph - 0.00 in   Overcast
7:53 AM 33.1 °F 22.2 °F 26.1 °F 75% 29.67 in 8.0 mi SSW 17.3 mph - 0.00 in Snow Light Snow
8:53 AM 33.1 °F 22.6 °F 27.0 °F 78% 29.65 in 10.0 mi South 16.1 mph - 0.00 in   Mostly Cloudy
9:06 AM 32.0 °F 22.1 °F 28.4 °F 87% 29.65 in 10.0 mi South 13.8 mph - N/A   Scattered Clouds
9:53 AM 32.0 °F 20.1 °F 19.9 °F 61% 29.65 in 10.0 mi SW 19.6 mph - N/A   Scattered Clouds
10:53 AM 33.1 °F 21.5 °F 23.0 °F 66% 29.65 in 10.0 mi SSW 19.6 mph 25.3 mph N/A   Mostly Cloudy
11:53 AM 34.0 °F 23.8 °F 23.0 °F 64% 29.64 in 10.0 mi SSW 16.1 mph 24.2 mph N/A   Mostly Cloudy
12:53 PM 35.1 °F 25.2 °F 27.0 °F 72% 29.64 in 10.0 mi South 16.1 mph - N/A   Overcast
1:35 PM 33.8 °F 23.5 °F 28.4 °F 81% 29.63 in 3.0 mi South 16.1 mph 27.6 mph 0.00 in Snow Light Snow
1:53 PM 34.0 °F 22.4 °F 28.0 °F 79% 29.62 in 10.0 mi South 20.7 mph 27.6 mph 0.00 in   Overcast
2:00 PM 33.8 °F 21.6 °F 28.4 °F 81% 29.62 in 7.0 mi South 23.0 mph 28.8 mph N/A   Overcast
2:13 PM 33.8 °F 23.2 °F 30.2 °F 87% 29.61 in 2.0 mi South 17.3 mph - 0.00 in Snow Light Snow
2:20 PM 33.8 °F 23.2 °F 30.2 °F 87% 29.62 in 1.5 mi South 17.3 mph - 0.00 in Snow Light Snow
2:38 PM 33.8 °F 23.9 °F 30.2 °F 87% 29.61 in 1.0 mi South 15.0 mph - 0.00 in Snow Light Snow
2:44 PM 33.8 °F 23.9 °F 32.0 °F 93% 29.60 in 1.0 mi SSE 15.0 mph - 0.00 in Snow Light Snow
2:53 PM 33.1 °F 23.4 °F 32.0 °F 96% 29.60 in 1.2 mi SSE 13.8 mph - 0.01 in Snow Light Snow
3:20 PM 33.8 °F 22.2 °F 32.0 °F 93% 29.58 in 2.5 mi SSE 20.7 mph - 0.01 in Snow Light Snow
3:51 PM 33.8 °F 22.8 °F 32.0 °F 93% 29.56 in 1.2 mi SSE 18.4 mph 25.3 mph 0.02 in Snow Light Snow
3:53 PM 33.1 °F 21.5 °F 32.0 °F 96% 29.56 in 1.2 mi SSE 19.6 mph 25.3 mph 0.02 in Snow Light Snow
4:37 PM 33.8 °F 23.5 °F 32.0 °F 93% 29.52 in 2.5 mi SE 16.1 mph 24.2 mph 0.01 in Snow Light Snow
4:53 PM 34.0 °F 23.0 °F 33.1 °F 96% 29.51 in 3.0 mi SE 18.4 mph - 0.01 in Snow Light Snow
5:11 PM 33.8 °F 22.5 °F 33.8 °F 100% 29.50 in 2.0 mi SE 19.6 mph - 0.01 in Snow Light Snow
5:51 PM 33.8 °F 23.5 °F 33.8 °F 100% 29.46 in 3.0 mi SE 16.1 mph 27.6 mph 0.02 in Snow Light Snow
5:53 PM 34.0 °F 23.0 °F 33.1 °F 96% 29.47 in 3.0 mi SE 18.4 mph 27.6 mph 0.02 in   Overcast
6:44 PM 37.4 °F 28.5 °F 35.6 °F 93% 29.43 in 2.5 mi South 15.0 mph - 0.01 in Rain Light Rain
6:53 PM 37.0 °F 28.1 °F 37.0 °F 100% 29.43 in 2.5 mi South 15.0 mph - 0.01 in   Overcast
7:53 PM 37.9 °F 28.9 °F 37.0 °F 97% 29.43 in 3.0 mi SSW 16.1 mph - 0.01 in Rain Light Rain
8:33 PM 37.4 °F 27.8 °F 37.4 °F 100% 29.43 in 2.5 mi SSW 17.3 mph - 0.01 in Rain Light Rain
8:53 PM 37.9 °F 28.2 °F 37.9 °F 100% 29.44 in 2.5 mi SSW 18.4 mph - 0.01 in Rain Light Rain
9:53 PM 37.9 °F 28.9 °F 37.9 °F 100% 29.43 in 2.5 mi SSW 16.1 mph - 0.00 in Rain Light Rain
10:53 PM 37.9 °F 27.6 °F 37.9 °F 100% 29.44 in 2.5 mi SSW 20.7 mph - 0.00 in Rain Light Rain
11:53 PM 37.9 °F 28.9 °F 37.9 °F 100% 29.44 in 3.0 mi SSW 16.1 mph - 0.01 in   Overcast